Regional Weather Roundup
Issued by NWS Goodland, KS

Home | Current Version | Previous Version | Text Only | Print | Product List | Glossary Off
Versions: 1 2 3 4 5 6 7 8 9 10 11 12 13 14 15 16 17 18 19 20 21 22 23 24 25 26 27 28 29 30 31 32 33 34 35 36 37 38 39 40 41 42 43 44 45 46 47 48 49 50

000
ASUS43 KGLD 280108
RWRGLD

GOODLAND FORECAST AREA HOURLY WEATHER ROUNDUP
NATIONAL WEATHER SERVICE GOODLAND KS
700 PM MDT MON MAR 27 2017

...OFFICIAL OBSERVATIONS...

CITY           SKY/WX    TMP DP  RH WIND       PRES   REMARKS
GOODLAND KS    CLEAR     55  42  61 SE10      29.85R
HILL CITY KS   MOCLDY    55  42  61 E7        29.90S
IMPERIAL NEB   CLEAR     58  37  45 SE13      29.84R
MCCOOK NEB     CLEAR     57  42  57 SE12      29.88R
AKRON CO       CLOUDY    57  33  40 SE14      29.82S
BURLINGTON CO  CLEAR     54  39  57 SE12      29.85R
LIMON CO       CLOUDY    53  36  52 SE14      29.82S
$$

...UNOFFICIAL OBSERVATIONS...

CITY           SKY/WX    TMP DP  RH WIND       PRES   REMARKS
NORTON KS      CLEAR     54  37  54 E7        29.90
SHARON SPRINGS   N/A     57  40  53 S12         N/A
TRENTON NEB      N/A     56  32  40 SE7         N/A
KIT CARSON CO    N/A     57  37  48 MISG        N/A
YUMA CO        CLOUDY    57  34  41 SE12      29.83R
$$




USA.gov is the U.S. government's official web portal to all federal, state and local government web resources and services.